User: anonymous   Login
Location: Kerberlivit
(48.2787°N, 4.5413°W)
Time: 06:10:29
(UTC+00:00)
Language:

CZ-4B R/B - Orbit

View from above orbital plane
View from above orbital plane
View from above satellite
View from above satellite

Ground track
Ground track

The orbit data is extracted from the following two-line orbital elements,

1 33410U 08053C   20156.86039787 +.00000177 +00000-0 +17693-4 0  9994
2 33410 097.8651 143.0209 0118544 158.2285 202.4037 14.99180032632884
Epoch (UTC): 04 June 2020 20:38:58
Eccentricity: 0.0118544
inclination: 97.8651°
perigee height: 487 km
apogee height: 652 km
right ascension of ascending node: 143.0209°
argument of perigee: 158.2285°
revolutions per day: 14.99180032
mean anomaly at epoch: 202.4037°
orbit number at epoch: 63288

The dashed part of the orbit path shows where the satellite is in the earth's shadow,  

DLR